AAR545 RKSI-LKPR

Flight info

Callsign AAR545
Flight time N/A
Altitude 21700
Route NOPIK Y697 AGAVO/K0845S0660 A591 IKEKA W4 FZ/K0907S1040 W4 HCH W200 DOVIV W55 PAMRU W34 VYK B215 LEBOM W104 VEXEB W47 IDSOT/K0909S1100 W48 DKO W66 NUKTI B215 FKG A368 SARIN/K0898F380 N161 TITIL N55 BALUN/N0489F380 N55 BETEK/N0489F400 N55 BAKUV N701 LUSAL M11 REBLO UM11 CRM UL746 GOKPA UM10 TIVUG UL852 NEGEM T746 ARGES DCT BUDOP DCT NORAH DCT PATAK DCT LALES DCT TUMKA DCT VLM
Aircraft A359/H-SDE1E2E3FGHIJ1J2J3J4J5M1P2RWXYZ/LB2D1G1

Departure

Time N/A
Airport Incheon International Airport (RKSI)

Arrival

Time 2026-05-05 13:27
Airport Václav Havel Airport Prague (LKPR)
Time Latitude Longitude Altitude Speed Heading
2026-05-05 12:44 48.79412 17.84003 36078 ft 468 kts 306°
2026-05-05 12:44 48.81483 17.80218 36066 ft 467 kts 306°
2026-05-05 12:44 48.85562 17.72596 36056 ft 466 kts 303°
2026-05-05 12:45 48.88753 17.64056 36055 ft 466 kts 294°
2026-05-05 12:45 48.91585 17.55215 36057 ft 468 kts 294°
2026-05-05 12:46 48.94393 17.46244 36059 ft 468 kts 294°
2026-05-05 12:46 48.97184 17.37334 36060 ft 468 kts 293°
2026-05-05 12:47 49.00010 17.28333 36054 ft 468 kts 293°
2026-05-05 12:47 49.02782 17.19480 36051 ft 465 kts 293°
2026-05-05 12:48 49.05570 17.10542 36046 ft 467 kts 293°
2026-05-05 12:48 49.08363 17.01559 36042 ft 468 kts 293°
2026-05-05 12:49 49.11127 16.92634 36031 ft 469 kts 293°
2026-05-05 12:49 49.13906 16.83629 36030 ft 469 kts 293°
2026-05-05 12:50 49.16688 16.74583 36030 ft 469 kts 293°
2026-05-05 12:50 49.19439 16.65603 36030 ft 469 kts 293°
2026-05-05 12:51 49.22191 16.56586 36032 ft 469 kts 293°
2026-05-05 12:51 49.24920 16.47611 36032 ft 469 kts 293°
2026-05-05 12:52 49.27674 16.38523 36032 ft 469 kts 293°
2026-05-05 12:52 49.30400 16.29494 36029 ft 469 kts 293°
2026-05-05 12:53 49.33111 16.20481 36017 ft 468 kts 292°
2026-05-05 12:53 49.35802 16.11500 35993 ft 468 kts 292°
2026-05-05 12:54 49.38498 16.02473 35002 ft 460 kts 292°
2026-05-05 12:54 49.39775 15.98180 34223 ft 463 kts 292°
2026-05-05 12:54 49.41134 15.93609 33334 ft 466 kts 292°
2026-05-05 12:55 49.42565 15.89240 32523 ft 466 kts 296°
2026-05-05 12:55 49.44110 15.84826 31658 ft 468 kts 296°
2026-05-05 12:55 49.45653 15.80392 30773 ft 470 kts 296°
2026-05-05 12:55 49.47181 15.75955 29842 ft 473 kts 296°
2026-05-05 12:56 49.48712 15.71475 28873 ft 474 kts 296°
2026-05-05 12:56 49.50239 15.66987 28211 ft 469 kts 296°
2026-05-05 12:56 49.51743 15.62557 27572 ft 465 kts 296°
2026-05-05 12:56 49.53236 15.58143 26893 ft 461 kts 296°
2026-05-05 12:57 49.54694 15.53827 26233 ft 458 kts 296°
2026-05-05 12:57 49.56155 15.49489 25579 ft 454 kts 296°
2026-05-05 12:57 49.57603 15.45180 24926 ft 451 kts 296°
2026-05-05 12:57 49.59060 15.40840 24269 ft 448 kts 295°
2026-05-05 12:58 49.60460 15.36660 23630 ft 445 kts 295°
2026-05-05 12:58 49.61875 15.32430 22921 ft 442 kts 295°
2026-05-05 12:58 49.63278 15.28227 22251 ft 438 kts 295°
2026-05-05 12:58 49.64669 15.24056 21604 ft 433 kts 295°
2026-05-05 12:59 49.66031 15.19963 21021 ft 428 kts 295°
2026-05-05 12:59 49.67362 15.15957 20346 ft 426 kts 295°
2026-05-05 12:59 49.68698 15.11927 19680 ft 423 kts 295°
2026-05-05 13:00 49.72005 15.04593 18426 ft 421 kts 315°
2026-05-05 13:00 49.74159 15.01674 17709 ft 419 kts 317°
2026-05-05 13:01 49.80657 14.93118 15691 ft 408 kts 317°
2026-05-05 13:01 49.82801 14.90272 15023 ft 405 kts 317°
2026-05-05 13:01 49.84942 14.87424 14375 ft 402 kts 317°
2026-05-05 13:01 49.87056 14.84615 13720 ft 399 kts 317°
2026-05-05 13:02 49.89153 14.81812 13006 ft 395 kts 317°
2026-05-05 13:02 49.91224 14.79041 12350 ft 390 kts 317°
2026-05-05 13:02 49.93251 14.76329 11729 ft 386 kts 317°
2026-05-05 13:02 49.95273 14.73620 11114 ft 381 kts 317°
2026-05-05 13:03 49.97217 14.71015 10964 ft 364 kts 317°
2026-05-05 13:03 49.99090 14.68506 10837 ft 348 kts 317°
2026-05-05 13:03 50.00839 14.66122 10709 ft 332 kts 314°
2026-05-05 13:03 50.02334 14.63506 10577 ft 315 kts 305°
2026-05-05 13:04 50.03610 14.60885 10452 ft 302 kts 304°
2026-05-05 13:04 50.04849 14.58324 10320 ft 290 kts 304°
2026-05-05 13:04 50.06044 14.55863 10175 ft 279 kts 304°
2026-05-05 13:04 50.07204 14.53475 9894 ft 274 kts 304°
2026-05-05 13:05 50.08357 14.51097 9580 ft 279 kts 304°
2026-05-05 13:05 50.09553 14.48627 9393 ft 290 kts 304°
2026-05-05 13:05 50.10757 14.46150 9255 ft 288 kts 304°
2026-05-05 13:05 50.11969 14.43663 8755 ft 289 kts 305°
2026-05-05 13:06 50.13205 14.41122 8303 ft 289 kts 304°
2026-05-05 13:06 50.14397 14.38659 7929 ft 286 kts 305°
2026-05-05 13:06 50.15585 14.36202 7592 ft 284 kts 305°
2026-05-05 13:06 50.16770 14.33751 7281 ft 283 kts 306°
2026-05-05 13:07 50.17959 14.31292 6969 ft 283 kts 306°
2026-05-05 13:07 50.19145 14.28835 6640 ft 281 kts 306°
2026-05-05 13:07 50.20303 14.26437 6331 ft 277 kts 307°
2026-05-05 13:07 50.21471 14.24024 6008 ft 272 kts 307°
2026-05-05 13:08 50.22602 14.21682 5694 ft 267 kts 307°
2026-05-05 13:08 50.23700 14.19387 5378 ft 265 kts 308°
2026-05-05 13:08 50.24799 14.17094 5196 ft 263 kts 308°
2026-05-05 13:08 50.25899 14.14778 5023 ft 259 kts 307°
2026-05-05 13:09 50.26603 14.12266 4971 ft 251 kts 279°
2026-05-05 13:09 50.26392 14.09630 4855 ft 242 kts 246°
2026-05-05 13:09 50.25417 14.07611 4768 ft 229 kts 222°
2026-05-05 13:09 50.24237 14.05980 4659 ft 222 kts 220°
2026-05-05 13:10 50.23115 14.04472 4493 ft 213 kts 218°
2026-05-05 13:10 50.21795 14.03590 4327 ft 199 kts 179°
2026-05-05 13:10 50.20557 14.04216 4121 ft 194 kts 141°
2026-05-05 13:10 50.19683 14.05786 3863 ft 191 kts 118°
2026-05-05 13:11 50.18992 14.07531 3585 ft 190 kts 120°
2026-05-05 13:11 50.18238 14.09200 3409 ft 185 kts 125°
2026-05-05 13:11 50.17437 14.10777 3276 ft 184 kts 124°
2026-05-05 13:11 50.16694 14.12309 3097 ft 172 kts 122°
2026-05-05 13:12 50.16002 14.13753 2871 ft 166 kts 122°
2026-05-05 13:12 50.15327 14.15146 2643 ft 152 kts 121°
2026-05-05 13:12 50.14708 14.16437 2466 ft 146 kts 124°
2026-05-05 13:12 50.14112 14.17670 2282 ft 142 kts 123°
2026-05-05 13:13 50.13510 14.18919 2096 ft 145 kts 118°
2026-05-05 13:13 50.12908 14.20183 1890 ft 147 kts 123°
2026-05-05 13:13 50.12307 14.21477 1636 ft 145 kts 121°
2026-05-05 13:13 50.11703 14.22729 1438 ft 146 kts 123°
2026-05-05 13:14 50.11067 14.23965 1313 ft 148 kts 123°
2026-05-05 13:14 50.10481 14.25215 1258 ft 148 kts 123°
2026-05-05 13:14 50.09773 14.26681 1616 ft 184 kts 124°
2026-05-05 13:14 50.08989 14.28311 2144 ft 190 kts 124°
2026-05-05 13:15 50.08244 14.29815 3244 ft 157 kts 124°
2026-05-05 13:15 50.07724 14.31221 3927 ft 141 kts 109°
2026-05-05 13:15 50.07457 14.32753 4159 ft 162 kts 92°
2026-05-05 13:15 50.07681 14.34577 4322 ft 179 kts 63°
2026-05-05 13:16 50.08476 14.36150 4663 ft 194 kts 46°
2026-05-05 13:16 50.09602 14.37406 4889 ft 212 kts 22°
2026-05-05 13:16 50.11163 14.37635 4963 ft 239 kts 351°
2026-05-05 13:16 50.12831 14.36870 4947 ft 269 kts 339°
2026-05-05 13:17 50.14532 14.35539 4942 ft 273 kts 332°
2026-05-05 13:17 50.16148 14.34126 4980 ft 261 kts 331°
2026-05-05 13:17 50.17662 14.32609 4992 ft 259 kts 322°
2026-05-05 13:17 50.18851 14.30505 4997 ft 257 kts 307°
2026-05-05 13:18 50.19854 14.28211 4997 ft 254 kts 305°
2026-05-05 13:18 50.20808 14.25942 5002 ft 253 kts 304°
2026-05-05 13:18 50.21785 14.23643 4836 ft 254 kts 305°
2026-05-05 13:18 50.22752 14.21380 4649 ft 246 kts 305°
2026-05-05 13:19 50.23685 14.19164 4386 ft 243 kts 305°
2026-05-05 13:19 50.24598 14.16941 4092 ft 243 kts 304°
2026-05-05 13:19 50.25510 14.14731 3996 ft 240 kts 304°
2026-05-05 13:19 50.26419 14.12532 3977 ft 240 kts 306°
2026-05-05 13:20 50.27301 14.10343 4000 ft 241 kts 305°
2026-05-05 13:20 50.28193 14.08117 3975 ft 241 kts 305°
2026-05-05 13:20 50.29088 14.05874 3975 ft 241 kts 303°
2026-05-05 13:20 50.29953 14.03658 3970 ft 239 kts 300°
2026-05-05 13:21 50.30472 14.01207 3996 ft 240 kts 279°
2026-05-05 13:21 50.30314 13.98654 3998 ft 236 kts 250°
2026-05-05 13:21 50.29370 13.96593 3975 ft 235 kts 214°
2026-05-05 13:21 50.27868 13.95848 3983 ft 232 kts 174°
2026-05-05 13:22 50.26413 13.96694 3997 ft 213 kts 139°
2026-05-05 13:22 50.25313 13.98052 4002 ft 196 kts 138°
2026-05-05 13:22 50.24235 13.99315 4002 ft 192 kts 141°
2026-05-05 13:22 50.23135 14.00517 4008 ft 193 kts 143°
2026-05-05 13:23 50.22053 14.01736 3996 ft 193 kts 135°
2026-05-05 13:23 50.21139 14.03251 3998 ft 192 kts 126°
2026-05-05 13:23 50.20321 14.04915 3973 ft 193 kts 124°
2026-05-05 13:23 50.19506 14.06585 3941 ft 195 kts 125°
2026-05-05 13:24 50.18682 14.08254 3704 ft 189 kts 125°
2026-05-05 13:24 50.17893 14.09814 3488 ft 182 kts 124°
2026-05-05 13:24 50.17155 14.11352 3242 ft 173 kts 121°
2026-05-05 13:24 50.16449 14.12835 3016 ft 165 kts 122°
2026-05-05 13:25 50.15771 14.14232 2793 ft 159 kts 122°
2026-05-05 13:25 50.15130 14.15559 2617 ft 147 kts 123°
2026-05-05 13:25 50.14531 14.16804 2417 ft 141 kts 124°
2026-05-05 13:25 50.13943 14.18026 2238 ft 141 kts 114°
2026-05-05 13:26 50.13364 14.19239 2058 ft 146 kts 117°
2026-05-05 13:26 50.12783 14.20458 1788 ft 147 kts 123°
2026-05-05 13:26 50.12177 14.21680 1584 ft 143 kts 122°
2026-05-05 13:26 50.11578 14.22918 1424 ft 144 kts 121°
2026-05-05 13:27 50.10960 14.24195 1272 ft 149 kts 121°
2026-05-05 13:27 50.10349 14.25475 1189 ft 142 kts 123°
2026-05-05 13:27 50.09865 14.26474 1209 ft 77 kts 127°
2026-05-05 13:27 50.09618 14.26983 1212 ft 46 kts 127°
2026-05-05 13:28 50.09470 14.27287 1213 ft 14 kts 126°
2026-05-05 13:28 50.09451 14.27335 1214 ft 9 kts 116°
2026-05-05 13:28 50.09471 14.27464 1217 ft 14 kts 54°
2026-05-05 13:28 50.09560 14.27584 1219 ft 13 kts 32°
2026-05-05 13:29 50.09625 14.27613 1216 ft 16 kts 357°
2026-05-05 13:29 50.09728 14.27513 1212 ft 20 kts 317°
2026-05-05 13:29 50.09834 14.27348 1209 ft 23 kts 310°
2026-05-05 13:29 50.09938 14.27142 1206 ft 26 kts 307°
2026-05-05 13:30 50.10058 14.26896 1197 ft 31 kts 307°
2026-05-05 13:30 50.10203 14.26597 1178 ft 37 kts 307°
2026-05-05 13:30 50.10354 14.26288 1175 ft 38 kts 306°
2026-05-05 13:30 50.10497 14.26007 1174 ft 16 kts 329°
2026-05-05 13:31 50.10574 14.26020 1176 ft 12 kts 26°
2026-05-05 13:31 50.10648 14.26090 1175 ft 14 kts 37°
2026-05-05 13:31 50.10732 14.26177 1175 ft 15 kts 33°
2026-05-05 13:31 50.10808 14.26293 1175 ft 15 kts 75°
2026-05-05 13:32 50.10768 14.26422 1175 ft 14 kts 125°
2026-05-05 13:32 50.10742 14.26497 1175 ft 0 kts 102°
2026-05-05 13:32 50.10742 14.26498 1175 ft 1 kts 96°
2026-05-05 13:32 50.10764 14.26557 1175 ft 8 kts 54°
2026-05-05 13:33 50.10772 14.26569 1175 ft 0 kts 43°
2026-05-05 13:33 50.10791 14.26592 1176 ft 0 kts 36°